This is the latest recevied weather packets stored in our database for station/object OE7SBH-WX. If no packets are shown the sender has not sent any weather packets the latest 10 day(s).
| Time | Temp. | Humidity | Pressure | Rain* | Wind** | Luminosity | Snow |
|---|---|---|---|---|---|---|---|
| 1778017228 | 13.33° C | 62% | 1014.7 hPa | 0 mm | - | 0 W/m² | - |
| 1778015428 | 14.44° C | 57% | 1014.2 hPa | 0 mm | - | 0 W/m² | - |
| 1778011830 | 15° C | 55% | 1013.7 hPa | 0 mm | - | 0 W/m² | - |
| 1778008825 | 16.11° C | 52% | 1013.2 hPa | 0 mm | - | 0 W/m² | - |
| 1778007627 | 16.67° C | 52% | 1013 hPa | 0 mm | - | 0 W/m² | - |
| 1778004637 | 18.89° C | 44% | 1012.4 hPa | 0 mm | - | 9 W/m² | - |
| 1778002821 | 19.44° C | 43% | 1012.3 hPa | 0 mm | - | 23 W/m² | - |
| 1778002230 | 19.44° C | 42% | 1012.3 hPa | 0 mm | - | 27 W/m² | - |
| 1778001638 | 19.44° C | 42% | 1012.3 hPa | 0 mm | - | 30 W/m² | - |
| 1778001020 | 19.44° C | 42% | 1012.3 hPa | 0 mm | - | 33 W/m² | - |
| 1777999857 | 20.56° C | 40% | 1012.3 hPa | 0 mm | - | 118 W/m² | - |
| 1777999273 | 20.56° C | 40% | 1012.5 hPa | 0 mm | - | 143 W/m² | - |
| 1777996230 | 20.56° C | 41% | 1012.4 hPa | 0 mm | - | 68 W/m² | - |
| 1777987251 | 21.11° C | 38% | 1012.6 hPa | 0 mm | - | 77 W/m² | - |
| 1777985419 | 21.11° C | 37% | 1012.4 hPa | 0 mm | - | 153 W/m² | - |
| 1777983644 | 21.67° C | 37% | 1012.3 hPa | 0 mm | - | 180 W/m² | - |
| 1777983033 | 21.67° C | 38% | 1012.4 hPa | 0 mm | - | 188 W/m² | - |
| 1777979430 | 22.22° C | 35% | 1012.6 hPa | 0 mm | - | 193 W/m² | - |
| 1777978824 | 22.22° C | 35% | 1012.5 hPa | 0 mm | - | 232 W/m² | - |
| 1777969533 | 21.67° C | 41% | 1013.4 hPa | 0 mm | - | 509 W/m² | - |
| 1777967152 | 17.22° C | 50% | 1014.3 hPa | 0 mm | - | 414 W/m² | - |
| 1777959321 | 11.11° C | 70% | 1015.4 hPa | 0 mm | - | 120 W/m² | - |
| 1777949733 | 10° C | 72% | 1016.2 hPa | 0 mm | - | 0 W/m² | - |
| 1777946127 | 11.11° C | 69% | 1016.5 hPa | 0 mm | - | 0 W/m² | - |
| 1777942521 | 12.22° C | 66% | 1016.6 hPa | 0 mm | - | 0 W/m² | - |
* Rain latest hour (hover to see other rain measurements)
** Current wind speed in m/s (hover to see current wind gust speed)